Location: Sungai Bunut
(2.6333°N, 113.7333°E)
Time: 10:25:23
(UTC+00:00)

A-11 Canister half - Pass Details

Date: 07 December 2023
Orbit: 1526 x 1682 km, 47.3° (Epoch: 04 March)

Event Time Altitude Azimuth Distance (km) Brightness Sun altitude
Exits shadow 20:09:23 57° 267° (W) 1,793 8.9 -30.2°
Maximum altitude 20:10:49 62° 231° (SW) 1,711 9.0 -29.9°
Drops below altitude 10° 20:20:00 10° 152° (SSE) 3,698 11.6 -27.8°
Sets 20:23:05 0° 148° (SSE) 4,675 12.4 -27.1°
